www.pogodaiklimat.ru

Погода и климат >> Архив погоды >> Ирак >> Ubaydah Bin Al Jarrah


ПОГОДА в Ubaydah Bin Al Jarrah

  • Прогноз погоды в Ubaydah Bin Al Jarrah
  • Монитор погоды в Ubaydah Bin Al Jarrah
  • Климат города

АРХИВ ПОГОДЫ в Ubaydah Bin Al Jarrah

Время (UTC), дата Ветер
(напр.,м/с)
 
Видим.   Явления Облачность Т
(С)
Тd
(С)
f
(%)
Тe
(С)
Тes
(С)
Комфортность P
(гПа)
Po
(гПа)
Тmin
(С)
Tmax
(С)
R
(мм)
R24
(мм)
S
(см)
12 12.07 СЗ 11 5000 м пыльный позёмок ясно +45.2 +7.1 10 +43 +43 опасность
перегрева
996.1 996.0
15 12.07 СЗ 8 6000 м пыльный позёмок ясно +43.6 +3.7 9 +40 +41 очень
жарко
995.5 996.0
18 12.07 СЗ 6 10 км ясно +37.8 +9.3 18 +36 +36 очень
жарко
996.1 996.0 +45.6
21 12.07 СЗ 7 10 км ясно +35.2 +7.2 18 +33 +33 жарко 996.2 996.0
00 13.07 СЗ 8 6000 м пыльный позёмок ясно +34.6 +5.9 17 +32 +32 жарко 995.5 996.0
03 13.07 СЗ 6 10 км ясно +32.8 +6.8 20 +31 +31 жарко 995.9 996.0
06 13.07 СЗ 6 10 км ясно +36.8 +10.8 21 +36 +41 очень
жарко
996.4 996.0 +32.5
09 13.07 СЗ 8 8000 м пыльный позёмок ясно +42.0 +12.7 18 +42 +46 опасность
перегрева
996.8 997.0
12 13.07 СЗ 9 8000 м пыльный позёмок ясно +43.4 +9.7 14 +42 +43 опасность
перегрева
995.9 996.0
15 13.07 СЗ 7 10 км ясно +41.6 +6.3 12 +39 +39 очень
жарко
1005.3 1005.0
18 13.07 СЗ 5 10 км ясно +34.6 +10.2 23 +34 +34 очень
жарко
996.5 997.0 +43.7
21 13.07 СЗ 3 10 км ясно +31.0 +9.9 27 +31 +31 жарко 996.4 996.0
06 14.07 С 2 10 км ясно +36.8 +11.9 22 +36 +49 очень
жарко
996.9 997.0 +26.0
09 14.07 З 2 10 км ясно +43.0 +8.2 13 +41 +62 опасность
перегрева
996.8 997.0
21 15.07 СЗ 2 10 км 3/0
[Ac trans]
+34.0 +12.3 27 +34 +34 очень
жарко
995.7 996.0
09 16.07 СЗ 6 10 км 1/1 1050 м
[Sc]
+42.4 +10.1 15 +41 +49 опасность
перегрева
996.8 997.0
12 16.07 З 6 10 км 1/1 1050 м
[Sc]
+42.8 +10.3 15 +42 +46 опасность
перегрева
995.8 996.0
15 16.07 З 6 10 км ясно +41.0 +13.5 20 +41 +41 опасность
перегрева
995.8 996.0
18 16.07 З 4 10 км ясно +36.2 +12.4 24 +36 +36 очень
жарко
996.9 997.0 +43.5
09 17.07 СЗ 9 5000 м пыльный позёмок ясно +40.4 +7.1 13 +38 +40 очень
жарко
996.7 997.0
12 17.07 СЗ 10 5000 м пыльный позёмок ясно +41.6 +10.3 16 +40 +41 очень
жарко
995.8 996.0
15 17.07 З 5 10 км ясно +40.4 +10.2 16 +39 +39 очень
жарко
995.4 995.0
18 17.07 СЗ 4 10 км ясно +35.6 +9.8 21 +34 +34 очень
жарко
995.8 996.0 +41.8
21 17.07 СЗ 5 10 км ясно +32.6 +8.8 23 +31 +31 жарко 995.9 996.0
00 18.07 СЗ 5 10 км ясно +31.8 +8.0 23 +31 +31 жарко 995.8 996.0
03 18.07 З 3 8000 м пыль ясно +29.6 +10.3 30 +30 +30 жарко 996.6 997.0
06 18.07 СЗ 6 8000 м пыль ясно +34.8 +10.0 22 +34 +39 очень
жарко
997.0 997.0 +29.4
09 18.07 З 6 5000 м пыль ясно +40.6 +12.3 19 +40 +49 очень
жарко
996.1 996.0
15 18.07 З 4 10 км ясно +41.4 +12.1 18 +41 +41 опасность
перегрева
995.0 995.0
21 18.07 З 2 10 км 3/3 1050 м
[Cu Sc]
+34.2 +11.6 25 +34 +34 очень
жарко
995.9 996.0
00 19.07 З 2 10 км ясно +31.6 +7.6 22 +30 +30 жарко 996.0 996.0
03 19.07 СЗ 6 10 км 3/3 1050 м
[Cu hum]
+32.2 +6.3 20 +30 +31 жарко 997.1 997.0

 

Местоположение метеостанции Ubaydah Bin Al Jarrah (Ирак): широта 32.49 долгота 45.75 высота над уровнем моря 21 м.

В архиве по умолчанию представлена погода в Ubaydah Bin Al Jarrah за последнюю неделю. Архивные данные за месяц целиком и за предыдущие месяцы, начиная с января 2011 года, Вы можете получить, выбрав интересующий диапазон дат из раскрывающегося списка и нажав кнопку "Ввод!".


*Определитесь, кто Вы:
робот инопланетянин человек

Внимание! Время в таблицах - всемирное. Для получения местного времени необходимо прибавить поправку, которая в Ubaydah Bin Al Jarrah равна 3 ч.

Смотрите также архив погоды в соседних городах и на ближайших метеорологических станциях:

Погода в Kut-Al-Hai (Ирак) (45 км)
Погода в Badrah (Ирак) (70 км)
Погода в Azizyah (Ирак) (80 км)
Погода в Ali Al-Gharbi (Ирак) (91 км)
Погода в Rifai (Ирак) (92 км)
Погода в Diwaniya (Ирак) (92 км)
Погода в Hella (Ирак) (122 км)
Погода в Samawah (Ирак) (140 км)
Погода в Ilam (Иран) (142 км)
Погода в Najaf (Ирак) (146 км)

Пояснения к столбцам:

Ветер - указаны скорость ветра в м/с - средняя за 10 мин, порывы в срок и между сроками (в фигурных скобках) и направление, откуда дует ветер: С - северный, СВ - северо-восточный, В - восточный, ЮВ - юго-восточный, Ю - южный, ЮЗ - юго-западный, З - западный, СЗ - северо-западный.
Видимость - горизонтальная дальность видимости в метрах или километрах. При видимости от 1 до 10 км при отсутствии осадков обычно наблюдается дымка, при ухудшении видимости до 1 км и менее - туман. В сухую погоду видимость может ухудшаться дымом, пылью или мглою.
Явления - указаны атмосферные явления, наблюдавшиеся в срок или в последний час перед сроком; фигурными скобками обозначены явления, наблюдавшиеся между сроками (за 1-3 часа до срока); квадратными скобками обозначены град или гололедные отложения с указанием их диаметра в мм.
Облачность - указаны через наклонную черту общая и нижняя облачность в баллах и высота нижней границы облаков в метрах; квадратными скобками обозначены формы облаков: Ci - перистые, Cs - перисто-слоистые, Cc - перисто-кучевые, Ac - высококучевые, As - высокослоистые, Sc - слоисто-кучевые, Ns - слоисто-дождевые, Cu - кучевые, Cb - кучево-дождевые. Подробнее классификацию облаков см. в Атласе облаков (PDF).
T - Температура воздуха - температура, измеренная на высоте 2 м над землей.
Td - Температура точки росы - температура, при понижении до которой содержащийся в воздухе водяной пар достигнет насыщения.
f - Относительная влажность воздуха - влажноcть воздуха, измеренная на высоте 2 м над землей.
Te - Эффективная температура - температура, которую ощущает одетый по сезону человек в тени. Характеристика душности погоды. При расчете учитывается влияние влажности воздуха и скорости ветра на теплоощущения человека.
Tes - Эффективная температура на солнце - температура, которую ощущает человек, с поправкой на солнечный нагрев. Характеристика знойности погоды. Зависит от высоты солнца над горизонтом, облачности и скорости ветра. Ночью, в пасмурную погоду, а также при ветре 12 м/с и более поправка равна нулю.
P - Атмосферное давление - приведенное к уровню моря атмосферное давление.
Po - Атмосферное давление - измеренное на уровне метеостанции атмосферное давление.
Tmin - Минимальная температура - минимум температуры воздуха на высоте 2 м над землей.
Tmax - Максимальная температура - максимум температуры воздуха на высоте 2 м над землей.
R - Количество осадков - Количество выпавших осадков за период времени, мм. При наведении курсора мыши на число - период времени, за который выпало указанное количество осадков.
R24 - Количество осадков - Количество выпавших осадков за 24 часа, мм.
S - Снежный покров - Высота снежного покрова, см. При наведении курсора мыши на число - состояние снежного покрова и степень покрытия местности в баллах.